,,,PA_Meas_PMT16A,,PR_Meas_QMR101_102,,RH_Meas_QMH101,,SR_Meas_QMS101,,TA_Meas_QMH101,,GenWind,,GenWind,
date,time,status,PA,status,PR,status,RH,status,SR,status,TA,status,DirAvg,status,SpdAvg,
2009-03-14, 00:00:04,VALID,1004.33,VALID,0,VALID,86.9921,VALID,0.100563,VALID,25.2007,VALID,360,VALID,0.924609,
2009-03-14, 00:01:04,VALID,1004.34,VALID,0,VALID,86.8853,VALID,0,VALID,25.2202,VALID,344,VALID,0.489844,
2009-03-14, 00:02:04,VALID,1004.31,VALID,0,VALID,86.6793,VALID,0.100563,VALID,25.2592,VALID,335,VALID,0.552344,
2009-03-14, 00:03:04,VALID,1004.31,VALID,0,VALID,86.5191,VALID,0.100563,VALID,25.2981,VALID,334,VALID,0.596094,
2009-03-14, 00:04:04,VALID,1004.32,VALID,0,VALID,86.2979,VALID,0,VALID,25.339,VALID,348,VALID,1.31641,
2009-03-14, 00:05:04,VALID,1004.29,VALID,0,VALID,86.1377,VALID,0,VALID,25.376,VALID,349,VALID,0.698047,
2009-03-14, 00:06:04,VALID,1004.26,VALID,0,VALID,86.1377,VALID,0,VALID,25.3974,VALID,351,VALID,0.0507813,
2009-03-14, 00:07:04,VALID,1004.21,VALID,0,VALID,85.9851,VALID,0.100563,VALID,25.3955,VALID,1,VALID,0.828906,
2009-03-14, 00:08:04,VALID,1004.19,VALID,0,VALID,85.8554,VALID,0.100563,VALID,25.3935,VALID,354,VALID,0.560938,
2009-03-14, 00:09:04,VALID,1004.2,VALID,0,VALID,85.6342,VALID,0.100563,VALID,25.4539,VALID,339,VALID,1.32617,
2009-03-14, 00:10:04,VALID,1004.19,VALID,0,VALID,85.3748,VALID,0.100563,VALID,25.4928,VALID,339,VALID,0.8,
2009-03-14, 00:11:04,VALID,1004.21,VALID,0,VALID,85.2222,VALID,0.100563,VALID,25.5318,VALID,342,VALID,0.328516,
2009-03-14, 00:12:04,VALID,1004.23,VALID,0,VALID,85.1383,VALID,0.100563,VALID,25.5532,VALID,345,VALID,0.629687,
2009-03-14, 00:13:04,VALID,1004.24,VALID,0,VALID,85.2756,VALID,0,VALID,25.5318,VALID,43,VALID,1.2125,
2009-03-14, 00:14:04,VALID,1004.25,VALID,0,VALID,85.2527,VALID,0,VALID,25.5104,VALID,49,VALID,0.897656,
2009-03-14, 00:15:04,VALID,1004.27,VALID,0,VALID,85.3138,VALID,0,VALID,25.5532,VALID,4,VALID,0.376953,
2009-03-14, 00:16:04,VALID,1004.26,VALID,0,VALID,85.5121,VALID,0,VALID,25.4928,VALID,35,VALID,1.9707,
2009-03-14, 00:17:04,VALID,1004.26,VALID,0,VALID,85.6037,VALID,0,VALID,25.4928,VALID,16,VALID,1.21133,
2009-03-14, 00:18:04,VALID,1004.29,VALID,0,VALID,85.5655,VALID,0,VALID,25.4928,VALID,347,VALID,0.944922,
2009-03-14, 00:19:04,VALID,1004.31,VALID,0,VALID,85.6342,VALID,0,VALID,25.4928,VALID,39,VALID,0.478125,
2009-03-14, 00:20:04,VALID,1004.27,VALID,0,VALID,85.6113,VALID,0,VALID,25.4734,VALID,15,VALID,0.887109,
2009-03-14, 00:21:04,VALID,1004.33,VALID,0,VALID,85.7257,VALID,0.100563,VALID,25.4734,VALID,34,VALID,0.705078,
2009-03-14, 00:22:04,VALID,1004.31,VALID,0,VALID,85.7944,VALID,0,VALID,25.4344,VALID,27,VALID,0.867188,
2009-03-14, 00:23:04,VALID,1004.29,VALID,0,VALID,85.9775,VALID,0,VALID,25.3955,VALID,5,VALID,0.51875,
2009-03-14, 00:24:04,VALID,1004.28,VALID,0,VALID,86.0919,VALID,0,VALID,25.3565,VALID,27,VALID,0.834375,
2009-03-14, 00:25:04,VALID,1004.25,VALID,0,VALID,86.2979,VALID,0,VALID,25.337,VALID,321,VALID,0.274219,
2009-03-14, 00:26:04,VALID,1004.23,VALID,0,VALID,86.4505,VALID,0,VALID,25.339,VALID,38,VALID,0.945313,
2009-03-14, 00:27:04,VALID,1004.22,VALID,0,VALID,86.5191,VALID,0.100563,VALID,25.3176,VALID,6,VALID,0.585938,
2009-03-14, 00:28:04,VALID,1004.16,VALID,0,VALID,86.5496,VALID,0,VALID,25.2981,VALID,351,VALID,0.400391,
2009-03-14, 00:29:04,VALID,1004.19,VALID,0,VALID,86.6641,VALID,0,VALID,25.2786,VALID,354,VALID,0.408203,
2009-03-14, 00:30:04,VALID,1004.18,VALID,0,VALID,86.8548,VALID,0,VALID,25.2592,VALID,358,VALID,0.469531,
2009-03-14, 00:31:04,VALID,1004.21,VALID,0,VALID,86.9845,VALID,0,VALID,25.2611,VALID,351,VALID,0.841016,
2009-03-14, 00:32:04,VALID,1004.2,VALID,0,VALID,87.076,VALID,0,VALID,25.2592,VALID,20,VALID,0.388672,
2009-03-14, 00:33:04,VALID,1004.18,VALID,0,VALID,87.1371,VALID,0,VALID,25.2397,VALID,352,VALID,0.267578,
2009-03-14, 00:34:04,VALID,1004.19,VALID,0,VALID,87.2057,VALID,0,VALID,25.2611,VALID,358,VALID,0.770703,
2009-03-14, 00:35:04,VALID,1004.19,VALID,0,VALID,87.0989,VALID,0,VALID,25.2806,VALID,29,VALID,1.29375,
2009-03-14, 00:36:04,VALID,1004.22,VALID,0,VALID,86.8777,VALID,0,VALID,25.337,VALID,10,VALID,1.83945,
2009-03-14, 00:37:04,VALID,1004.2,VALID,0,VALID,86.5878,VALID,0,VALID,25.4363,VALID,342,VALID,1.10781,
2009-03-14, 00:38:04,VALID,1004.16,VALID,0,VALID,86.542,VALID,0,VALID,25.4363,VALID,22,VALID,1.80703,
2009-03-14, 00:39:04,VALID,1004.18,VALID,0,VALID,86.2598,VALID,0,VALID,25.4539,VALID,4,VALID,1.10625,
2009-03-14, 00:40:04,VALID,1004.17,VALID,0,VALID,86.2292,VALID,0,VALID,25.4539,VALID,357,VALID,0.748828,
2009-03-14, 00:41:04,VALID,1004.15,VALID,0,VALID,86.2369,VALID,0,VALID,25.4539,VALID,40,VALID,1.12969,
2009-03-14, 00:42:04,VALID,1004.11,VALID,0,VALID,86.0919,VALID,0,VALID,25.5532,VALID,359,VALID,0.942187,
2009-03-14, 00:43:04,VALID,1004.11,VALID,0,VALID,86.0156,VALID,0,VALID,25.5727,VALID,353,VALID,0.533984,
2009-03-14, 00:44:04,VALID,1004.07,VALID,0,VALID,86.0309,VALID,0,VALID,25.5513,VALID,353,VALID,1.02539,
2009-03-14, 00:45:04,VALID,1004.03,VALID,0,VALID,86.0385,VALID,0,VALID,25.5921,VALID,358,VALID,0.550781,
2009-03-14, 00:46:04,VALID,1004.08,VALID,0,VALID,85.8325,VALID,0,VALID,25.5727,VALID,346,VALID,0.805859,
2009-03-14, 00:47:04,VALID,1004.06,VALID,0,VALID,85.9393,VALID,0,VALID,25.5707,VALID,2,VALID,0.478516,
2009-03-14, 00:48:04,VALID,1004.04,VALID,0,VALID,85.9088,VALID,0.100563,VALID,25.5707,VALID,357,VALID,0.259766,
2009-03-14, 00:49:04,VALID,1004.04,VALID,0,VALID,85.8783,VALID,0,VALID,25.5513,VALID,2,VALID,0.889453,
2009-03-14, 00:50:04,VALID,1003.98,VALID,0,VALID,85.6037,VALID,0,VALID,25.5513,VALID,348,VALID,1.04102,
2009-03-14, 00:51:04,VALID,1004.01,VALID,0,VALID,85.5884,VALID,0,VALID,25.5727,VALID,34,VALID,0.719141,
2009-03-14, 00:52:04,VALID,1003.96,VALID,0,VALID,85.6571,VALID,0.100563,VALID,25.5727,VALID,32,VALID,0.482031,
2009-03-14, 00:53:04,VALID,1003.93,VALID,0,VALID,85.68,VALID,0,VALID,25.5123,VALID,25,VALID,0.196094,
2009-03-14, 00:54:04,VALID,1003.93,VALID,0,VALID,85.7105,VALID,0,VALID,25.5123,VALID,25,VALID,0.278125,
2009-03-14, 00:55:04,VALID,1003.88,VALID,0,VALID,85.7791,VALID,0.100563,VALID,25.4734,VALID,25,VALID,0.123438,
2009-03-14, 00:56:04,VALID,1003.82,VALID,0,VALID,85.8631,VALID,0,VALID,25.4539,VALID,149,VALID,0.281641,
2009-03-14, 00:57:04,VALID,1003.79,VALID,0,VALID,85.8859,VALID,0,VALID,25.4539,VALID,1,VALID,1.02461,
2009-03-14, 00:58:04,VALID,1003.75,VALID,0,VALID,85.9317,VALID,0,VALID,25.4558,VALID,21,VALID,0.443359,
2009-03-14, 00:59:04,VALID,1003.73,VALID,0,VALID,85.9699,VALID,0,VALID,25.3974,VALID,29,VALID,0.641406,
2009-03-14, 01:00:04,VALID,1003.68,VALID,0,VALID,86.1606,VALID,0,VALID,25.337,VALID,32,VALID,0.561328,
2009-03-14, 01:01:04,VALID,1003.67,VALID,0,VALID,86.5115,VALID,0,VALID,25.2592,VALID,32,VALID,0.275391,
2009-03-14, 01:02:04,VALID,1003.64,VALID,0,VALID,86.7861,VALID,0,VALID,25.1813,VALID,32,VALID,0.101172,
2009-03-14, 01:03:04,VALID,1003.61,VALID,0,VALID,86.9616,VALID,0,VALID,25.1442,VALID,32,VALID,0.00273437,
2009-03-14, 01:04:04,VALID,1003.46,VALID,0,VALID,87.1447,VALID,0,VALID,25.1034,VALID,32,VALID,0,
2009-03-14, 01:05:04,VALID,1003.5,VALID,0,VALID,87.3888,VALID,0,VALID,25.045,VALID,32,VALID,0,
2009-03-14, 01:06:04,VALID,1003.5,VALID,0,VALID,87.5948,VALID,0,VALID,25.006,VALID,32,VALID,0.159375,
2009-03-14, 01:07:04,VALID,1003.44,VALID,0,VALID,87.8542,VALID,0.100563,VALID,24.9476,VALID,32,VALID,0,
2009-03-14, 01:08:04,VALID,1003.39,VALID,0,VALID,88.0983,VALID,0,VALID,24.9106,VALID,32,VALID,0.217578,
2009-03-14, 01:09:04,VALID,1003.33,VALID,0,VALID,88.3424,VALID,0,VALID,24.8522,VALID,32,VALID,0.105469,
2009-03-14, 01:10:04,VALID,1003.33,VALID,0,VALID,88.556,VALID,0,VALID,24.7724,VALID,32,VALID,0.469531,
2009-03-14, 01:11:04,VALID,1003.28,VALID,0,VALID,88.7925,VALID,0,VALID,24.7335,VALID,32,VALID,0.260547,
2009-03-14, 01:12:04,VALID,1003.27,VALID,0,VALID,89.0061,VALID,0,VALID,24.675,VALID,32,VALID,0.594531,
2009-03-14, 01:13:04,VALID,1003.31,VALID,0,VALID,89.1969,VALID,0,VALID,24.6166,VALID,32,VALID,0.112891,
2009-03-14, 01:14:04,VALID,1003.28,VALID,0,VALID,89.3723,VALID,0,VALID,24.5777,VALID,32,VALID,0.259375,
2009-03-14, 01:15:04,VALID,1003.28,VALID,0,VALID,89.5554,VALID,0,VALID,24.5193,VALID,32,VALID,0.241797,
2009-03-14, 01:16:04,VALID,1003.27,VALID,0,VALID,89.7309,VALID,0,VALID,24.4609,VALID,32,VALID,0.191797,
2009-03-14, 01:17:04,VALID,1003.24,VALID,0,VALID,89.9216,VALID,0,VALID,24.422,VALID,32,VALID,0.305859,
2009-03-14, 01:18:04,VALID,1003.23,VALID,0,VALID,90.0894,VALID,0,VALID,24.4025,VALID,32,VALID,0.297266,
2009-03-14, 01:19:04,VALID,1003.21,VALID,0,VALID,90.2573,VALID,0,VALID,24.3636,VALID,32,VALID,0.170703,
2009-03-14, 01:20:04,VALID,1003.21,VALID,0,VALID,90.4022,VALID,0,VALID,24.3265,VALID,32,VALID,0,
2009-03-14, 01:21:04,VALID,1003.18,VALID,0,VALID,90.5319,VALID,0,VALID,24.2662,VALID,33,VALID,0.469531,
2009-03-14, 01:22:04,VALID,1003.14,VALID,0,VALID,90.6845,VALID,0,VALID,24.2468,VALID,33,VALID,0.294922,
2009-03-14, 01:23:04,VALID,1003.13,VALID,0,VALID,90.7913,VALID,0.100563,VALID,24.2273,VALID,33,VALID,0.304297,
2009-03-14, 01:24:04,VALID,1003.08,VALID,0,VALID,90.8905,VALID,0,VALID,24.2078,VALID,34,VALID,0.177344,
2009-03-14, 01:25:04,VALID,1003.04,VALID,0,VALID,90.9744,VALID,0,VALID,24.2078,VALID,34,VALID,0.283203,
2009-03-14, 01:26:04,VALID,1003.01,VALID,0,VALID,91.0431,VALID,0,VALID,24.2291,VALID,38,VALID,0.576953,
2009-03-14, 01:27:04,VALID,1003.01,VALID,0,VALID,91.0736,VALID,0,VALID,24.2291,VALID,38,VALID,0.155469,
2009-03-14, 01:28:04,VALID,1003,VALID,0,VALID,91.0888,VALID,0,VALID,24.2078,VALID,38,VALID,0.103125,
2009-03-14, 01:29:04,VALID,1002.99,VALID,0,VALID,91.0507,VALID,0,VALID,24.2486,VALID,38,VALID,0.0078125,
2009-03-14, 01:30:04,VALID,1002.97,VALID,0,VALID,91.1117,VALID,0,VALID,24.2291,VALID,38,VALID,0.0625,
2009-03-14, 01:31:04,VALID,1002.95,VALID,0,VALID,91.0736,VALID,0,VALID,24.2291,VALID,38,VALID,0.253906,
2009-03-14, 01:32:04,VALID,1002.92,VALID,0,VALID,91.0736,VALID,0,VALID,24.1884,VALID,38,VALID,0.071875,
2009-03-14, 01:33:04,VALID,1002.94,VALID,0,VALID,91.0965,VALID,0,VALID,24.1494,VALID,38,VALID,0.305078,
2009-03-14, 01:34:04,VALID,1002.88,VALID,0,VALID,91.2033,VALID,0,VALID,24.13,VALID,48,VALID,0.507422,
2009-03-14, 01:35:04,VALID,1002.89,VALID,0,VALID,91.2567,VALID,0,VALID,24.1105,VALID,58,VALID,0.009375,
2009-03-14, 01:36:04,VALID,1002.86,VALID,0,VALID,91.333,VALID,0,VALID,24.091,VALID,58,VALID,0,
2009-03-14, 01:37:04,VALID,1002.83,VALID,0,VALID,91.4398,VALID,0,VALID,24.0716,VALID,58,VALID,0.241406,
2009-03-14, 01:38:04,VALID,1002.81,VALID,0,VALID,91.5313,VALID,0,VALID,24.0521,VALID,58,VALID,0.269531,
2009-03-14, 01:39:04,VALID,1002.76,VALID,0,VALID,91.6,VALID,0,VALID,24.0326,VALID,58,VALID,0.516016,
2009-03-14, 01:40:04,VALID,1002.75,VALID,0,VALID,91.7297,VALID,0,VALID,24.0539,VALID,58,VALID,0.510547,
2009-03-14, 01:41:04,VALID,1002.76,VALID,0,VALID,91.8212,VALID,0,VALID,24.0326,VALID,58,VALID,0.441406,
2009-03-14, 01:42:04,VALID,1002.78,VALID,0,VALID,91.9051,VALID,0,VALID,24.0326,VALID,62,VALID,0.23125,
2009-03-14, 01:43:04,VALID,1002.77,VALID,0,VALID,91.9356,VALID,0,VALID,24.0345,VALID,62,VALID,0,
2009-03-14, 01:44:04,VALID,1002.79,VALID,0,VALID,92.0119,VALID,0.100563,VALID,23.9937,VALID,62,VALID,0.332812,
2009-03-14, 01:45:04,VALID,1002.78,VALID,0,VALID,92.0272,VALID,0,VALID,23.9742,VALID,44,VALID,0.73125,
2009-03-14, 01:46:04,VALID,1002.8,VALID,0,VALID,92.1492,VALID,0,VALID,23.9742,VALID,37,VALID,0.607031,
2009-03-14, 01:47:04,VALID,1002.82,VALID,0,VALID,92.2332,VALID,0,VALID,23.9353,VALID,41,VALID,0.755078,
2009-03-14, 01:48:04,VALID,1002.81,VALID,0,VALID,92.2179,VALID,0.100563,VALID,23.9159,VALID,11,VALID,0.557422,
2009-03-14, 01:49:04,VALID,1002.78,VALID,0,VALID,92.2179,VALID,0,VALID,23.8751,VALID,11,VALID,0.467187,
2009-03-14, 01:50:04,VALID,1002.81,VALID,0,VALID,92.3781,VALID,0,VALID,23.8362,VALID,11,VALID,0.414844,
2009-03-14, 01:51:04,VALID,1002.81,VALID,0,VALID,92.3629,VALID,0,VALID,23.838,VALID,11,VALID,0.279297,
2009-03-14, 01:52:04,VALID,1002.77,VALID,0,VALID,92.3781,VALID,0,VALID,23.8185,VALID,11,VALID,0.00585938,
2009-03-14, 01:53:04,VALID,1002.77,VALID,0,VALID,92.4544,VALID,0,VALID,23.7991,VALID,11,VALID,0,
2009-03-14, 01:54:04,VALID,1002.77,VALID,0,VALID,92.5078,VALID,0,VALID,23.7991,VALID,11,VALID,0.0683594,
2009-03-14, 01:55:04,VALID,1002.74,VALID,0,VALID,92.5536,VALID,0,VALID,23.7796,VALID,11,VALID,0,
2009-03-14, 01:56:04,VALID,1002.71,VALID,0,VALID,92.6222,VALID,0,VALID,23.7796,VALID,11,VALID,0,
2009-03-14, 01:57:04,VALID,1002.69,VALID,0,VALID,92.6451,VALID,0,VALID,23.7991,VALID,11,VALID,0,
2009-03-14, 01:58:04,VALID,1002.68,VALID,0,VALID,92.668,VALID,0,VALID,23.8185,VALID,11,VALID,0.0140625,
2009-03-14, 01:59:04,VALID,1002.72,VALID,0,VALID,92.7062,VALID,0,VALID,23.838,VALID,5,VALID,0.450391,
2009-03-14, 02:00:04,VALID,1002.74,VALID,0,VALID,92.6985,VALID,0,VALID,23.8769,VALID,358,VALID,0.435547,
2009-03-14, 02:01:04,VALID,1002.73,VALID,0,VALID,92.607,VALID,0,VALID,23.8964,VALID,358,VALID,0.452344,
2009-03-14, 02:02:04,VALID,1002.72,VALID,0,VALID,92.5307,VALID,0,VALID,23.9742,VALID,37,VALID,0.282813,
2009-03-14, 02:03:04,VALID,1002.72,VALID,0,VALID,92.2561,VALID,0,VALID,24.0326,VALID,37,VALID,0.0535156,
2009-03-14, 02:04:04,VALID,1002.71,VALID,0,VALID,92.0653,VALID,0,VALID,24.091,VALID,345,VALID,0.525781,
2009-03-14, 02:05:04,VALID,1002.69,VALID,0,VALID,91.8899,VALID,0,VALID,24.13,VALID,325,VALID,0.481641,
2009-03-14, 02:06:04,VALID,1002.7,VALID,0,VALID,91.6457,VALID,0,VALID,24.1884,VALID,325,VALID,0.0617188,
2009-03-14, 02:07:04,VALID,1002.67,VALID,0,VALID,91.3787,VALID,0.100563,VALID,24.2468,VALID,323,VALID,0.096875,
2009-03-14, 02:08:04,VALID,1002.67,VALID,0,VALID,91.1499,VALID,0,VALID,24.307,VALID,306,VALID,0,
2009-03-14, 02:09:04,VALID,1002.71,VALID,0,VALID,90.9286,VALID,0,VALID,24.3246,VALID,306,VALID,0.541406,
2009-03-14, 02:10:04,VALID,1002.68,VALID,0,VALID,90.7379,VALID,0.100563,VALID,24.3636,VALID,305,VALID,0.01875,
2009-03-14, 02:11:04,VALID,1002.69,VALID,0,VALID,90.4099,VALID,0.100563,VALID,24.4006,VALID,305,VALID,0.482422,
2009-03-14, 02:12:04,VALID,1002.7,VALID,0,VALID,90.1047,VALID,0,VALID,24.422,VALID,232,VALID,0.621484,
2009-03-14, 02:13:04,VALID,1002.68,VALID,0,VALID,89.9521,VALID,0.100563,VALID,24.4201,VALID,232,VALID,0.371094,
2009-03-14, 02:14:04,VALID,1002.69,VALID,0,VALID,89.9292,VALID,0,VALID,24.4414,VALID,232,VALID,0.0316406,
2009-03-14, 02:15:04,VALID,1002.63,VALID,0,VALID,89.8758,VALID,0,VALID,24.4006,VALID,232,VALID,0,
2009-03-14, 02:16:04,VALID,1002.59,VALID,0,VALID,89.8835,VALID,0,VALID,24.4025,VALID,232,VALID,0.347266,
2009-03-14, 02:17:04,VALID,1002.53,VALID,0,VALID,89.9521,VALID,0.100563,VALID,24.4025,VALID,232,VALID,0.397656,
2009-03-14, 02:18:04,VALID,1002.5,VALID,0,VALID,89.9903,VALID,0,VALID,24.3636,VALID,229,VALID,0.621484,
2009-03-14, 02:19:04,VALID,1002.44,VALID,0,VALID,90.0894,VALID,0,VALID,24.3246,VALID,229,VALID,0.398438,
2009-03-14, 02:20:04,VALID,1002.46,VALID,0,VALID,90.2039,VALID,0.100563,VALID,24.2857,VALID,229,VALID,0.212891,
2009-03-14, 02:21:04,VALID,1002.45,VALID,0,VALID,90.2802,VALID,0,VALID,24.2468,VALID,229,VALID,0,
2009-03-14, 02:22:04,VALID,1002.47,VALID,0,VALID,90.3717,VALID,0,VALID,24.2273,VALID,229,VALID,0,
2009-03-14, 02:23:04,VALID,1002.49,VALID,0,VALID,90.5243,VALID,0,VALID,24.2078,VALID,229,VALID,0,
2009-03-14, 02:24:04,VALID,1002.49,VALID,0,VALID,90.654,VALID,0.100563,VALID,24.1689,VALID,229,VALID,0,
2009-03-14, 02:25:04,VALID,1002.48,VALID,0,VALID,90.7226,VALID,0.100563,VALID,24.1494,VALID,229,VALID,0,
2009-03-14, 02:26:04,VALID,1002.46,VALID,0,VALID,90.9286,VALID,0,VALID,24.13,VALID,229,VALID,0.151172,
2009-03-14, 02:27:04,VALID,1002.48,VALID,0,VALID,91.0431,VALID,0,VALID,24.1513,VALID,229,VALID,0,
2009-03-14, 02:28:04,VALID,1002.46,VALID,0,VALID,91.1956,VALID,0.100563,VALID,24.13,VALID,229,VALID,0.111328,
2009-03-14, 02:29:04,VALID,1002.46,VALID,0,VALID,91.3253,VALID,0,VALID,24.1087,VALID,229,VALID,0.0808594,
2009-03-14, 02:30:04,VALID,1002.45,VALID,0,VALID,91.5847,VALID,0,VALID,24.13,VALID,229,VALID,0.212109,
2009-03-14, 02:31:04,VALID,1002.47,VALID,0,VALID,91.661,VALID,0,VALID,24.13,VALID,229,VALID,0.332031,
2009-03-14, 02:32:04,VALID,1002.46,VALID,0,VALID,91.7144,VALID,0,VALID,24.13,VALID,229,VALID,0.229687,
2009-03-14, 02:33:04,VALID,1002.46,VALID,0,VALID,91.8059,VALID,0,VALID,24.1105,VALID,229,VALID,0.110547,
2009-03-14, 02:34:04,VALID,1002.47,VALID,0,VALID,91.8441,VALID,0,VALID,24.1105,VALID,229,VALID,0.548437,
2009-03-14, 02:35:04,VALID,1002.48,VALID,0,VALID,91.7068,VALID,0,VALID,24.0521,VALID,229,VALID,0.188672,
2009-03-14, 02:36:04,VALID,1002.47,VALID,0,VALID,91.7373,VALID,0,VALID,24.0132,VALID,229,VALID,0.163672,
2009-03-14, 02:37:04,VALID,1002.47,VALID,0,VALID,91.8059,VALID,0.100563,VALID,24.0132,VALID,229,VALID,0.00585938,
2009-03-14, 02:38:04,VALID,1002.47,VALID,0,VALID,91.8441,VALID,0,VALID,24.0132,VALID,229,VALID,0.0015625,
2009-03-14, 02:39:04,VALID,1002.43,VALID,0,VALID,91.8594,VALID,0,VALID,24.0326,VALID,229,VALID,0,
2009-03-14, 02:40:04,VALID,1002.4,VALID,0,VALID,91.8365,VALID,0,VALID,24.0326,VALID,229,VALID,0,
2009-03-14, 02:41:04,VALID,1002.4,VALID,0,VALID,91.867,VALID,0,VALID,24.0132,VALID,229,VALID,0,
2009-03-14, 02:42:04,VALID,1002.38,VALID,0,VALID,91.8441,VALID,0,VALID,24.0132,VALID,229,VALID,0,
2009-03-14, 02:43:04,VALID,1002.36,VALID,0,VALID,91.9509,VALID,0,VALID,24.0132,VALID,229,VALID,0,
2009-03-14, 02:44:04,VALID,1002.36,VALID,0,VALID,92.0348,VALID,0.100563,VALID,24.0132,VALID,229,VALID,0,
2009-03-14, 02:45:04,VALID,1002.37,VALID,0,VALID,91.9814,VALID,0,VALID,24.0132,VALID,229,VALID,0,
2009-03-14, 02:46:04,VALID,1002.36,VALID,0,VALID,92.0272,VALID,0,VALID,23.9937,VALID,229,VALID,0.184766,
2009-03-14, 02:47:04,VALID,1002.4,VALID,0,VALID,92.073,VALID,0.100563,VALID,23.9742,VALID,230,VALID,0.467578,
2009-03-14, 02:48:04,VALID,1002.37,VALID,0,VALID,92.1111,VALID,0,VALID,23.9548,VALID,230,VALID,0.292969,
2009-03-14, 02:49:04,VALID,1002.35,VALID,0,VALID,92.1492,VALID,0,VALID,23.9353,VALID,230,VALID,0.324609,
2009-03-14, 02:50:04,VALID,1002.41,VALID,0,VALID,92.2561,VALID,0.100563,VALID,23.9159,VALID,230,VALID,0.000390625,
2009-03-14, 02:51:04,VALID,1002.41,VALID,0,VALID,92.4239,VALID,0,VALID,23.9159,VALID,230,VALID,0,
2009-03-14, 02:52:04,VALID,1002.44,VALID,0,VALID,92.5078,VALID,0,VALID,23.9371,VALID,230,VALID,0.111328,
2009-03-14, 02:53:04,VALID,1002.44,VALID,0,VALID,92.607,VALID,0.100563,VALID,23.9159,VALID,230,VALID,0.181641,
2009-03-14, 02:54:04,VALID,1002.42,VALID,0,VALID,92.7062,VALID,0,VALID,23.9353,VALID,230,VALID,0.210547,
2009-03-14, 02:55:04,VALID,1002.4,VALID,0,VALID,92.7443,VALID,0,VALID,23.9548,VALID,230,VALID,0.221875,
2009-03-14, 02:56:04,VALID,1002.41,VALID,0,VALID,92.7901,VALID,0.100563,VALID,23.9548,VALID,230,VALID,0,
2009-03-14, 02:57:04,VALID,1002.39,VALID,0,VALID,92.7672,VALID,0,VALID,23.9548,VALID,230,VALID,0,
2009-03-14, 02:58:04,VALID,1002.39,VALID,0,VALID,92.8206,VALID,0,VALID,23.9548,VALID,230,VALID,0,
2009-03-14, 02:59:04,VALID,1002.4,VALID,0,VALID,92.8587,VALID,0,VALID,23.9742,VALID,230,VALID,0,
2009-03-14, 03:00:04,VALID,1002.44,VALID,0,VALID,92.874,VALID,0,VALID,23.9742,VALID,230,VALID,0,
2009-03-14, 03:01:04,VALID,1002.43,VALID,0,VALID,92.874,VALID,0,VALID,23.9742,VALID,230,VALID,0,
2009-03-14, 03:02:04,VALID,1002.47,VALID,0,VALID,92.9121,VALID,0,VALID,23.9937,VALID,230,VALID,0,
2009-03-14, 03:03:04,VALID,1002.5,VALID,0,VALID,93.0266,VALID,0.100563,VALID,24.0326,VALID,230,VALID,0,
2009-03-14, 03:04:04,VALID,1002.54,VALID,0,VALID,93.1334,VALID,0.100563,VALID,24.0716,VALID,230,VALID,0.308984,
2009-03-14, 03:05:04,VALID,1002.56,VALID,0,VALID,93.141,VALID,0,VALID,24.1318,VALID,230,VALID,0.405078,
2009-03-14, 03:06:04,VALID,1002.56,VALID,0,VALID,93.1486,VALID,0.100563,VALID,24.13,VALID,230,VALID,0,
2009-03-14, 03:07:04,VALID,1002.52,VALID,0,VALID,93.1715,VALID,0,VALID,24.1494,VALID,230,VALID,0.015625,
2009-03-14, 03:08:04,VALID,1002.52,VALID,0,VALID,93.0266,VALID,0.100563,VALID,24.1689,VALID,230,VALID,0.227734,
2009-03-14, 03:09:04,VALID,1002.52,VALID,0,VALID,93.0266,VALID,0,VALID,24.1671,VALID,230,VALID,0.244922,
2009-03-14, 03:10:04,VALID,1002.55,VALID,0,VALID,92.9198,VALID,0,VALID,24.2273,VALID,319,VALID,0.812109,
2009-03-14, 03:11:04,VALID,1002.53,VALID,0,VALID,92.9884,VALID,0,VALID,24.2662,VALID,356,VALID,0.658984,
2009-03-14, 03:12:04,VALID,1002.59,VALID,0,VALID,92.8816,VALID,0.100563,VALID,24.2662,VALID,357,VALID,0.660547,
2009-03-14, 03:13:04,VALID,1002.57,VALID,0,VALID,92.8664,VALID,0.100563,VALID,24.2662,VALID,1,VALID,0.712109,
2009-03-14, 03:14:04,VALID,1002.6,VALID,0,VALID,92.7748,VALID,0,VALID,24.2468,VALID,1,VALID,0.508203,
2009-03-14, 03:15:04,VALID,1002.65,VALID,0,VALID,92.8206,VALID,0,VALID,24.2468,VALID,1,VALID,0.468359,
2009-03-14, 03:16:04,VALID,1002.66,VALID,0,VALID,92.8892,VALID,0,VALID,24.2486,VALID,1,VALID,0.0933594,
2009-03-14, 03:17:04,VALID,1002.64,VALID,0,VALID,92.9198,VALID,0,VALID,24.2662,VALID,1,VALID,0.0699219,
2009-03-14, 03:18:04,VALID,1002.66,VALID,0,VALID,92.9274,VALID,0,VALID,24.2468,VALID,1,VALID,0.233594,
2009-03-14, 03:19:04,VALID,1002.66,VALID,0,VALID,92.935,VALID,0,VALID,24.2255,VALID,5,VALID,0.432031,
2009-03-14, 03:20:04,VALID,1002.62,VALID,0,VALID,92.9045,VALID,0,VALID,24.2468,VALID,12,VALID,0.482422,
2009-03-14, 03:21:04,VALID,1002.62,VALID,0,VALID,92.9274,VALID,0.100563,VALID,24.2857,VALID,12,VALID,0.276172,
2009-03-14, 03:22:04,VALID,1002.65,VALID,0,VALID,92.8816,VALID,0.100563,VALID,24.3052,VALID,12,VALID,0.219141,
2009-03-14, 03:23:04,VALID,1002.61,VALID,0,VALID,92.8511,VALID,0.100563,VALID,24.3246,VALID,12,VALID,0,
2009-03-14, 03:24:04,VALID,1002.62,VALID,0,VALID,92.8358,VALID,0.100563,VALID,24.3441,VALID,12,VALID,0,
2009-03-14, 03:25:04,VALID,1002.65,VALID,0,VALID,92.7596,VALID,0,VALID,24.3441,VALID,12,VALID,0,
2009-03-14, 03:26:04,VALID,1002.65,VALID,0,VALID,92.7443,VALID,0,VALID,24.3441,VALID,62,VALID,0.39375,
2009-03-14, 03:27:04,VALID,1002.67,VALID,0,VALID,92.7062,VALID,0,VALID,24.3636,VALID,71,VALID,0.296875,
2009-03-14, 03:28:04,VALID,1002.7,VALID,0.5,VALID,92.813,VALID,0,VALID,24.4238,VALID,158,VALID,0.557813,
2009-03-14, 03:29:04,VALID,1002.68,VALID,1,VALID,92.7443,VALID,0.100563,VALID,24.4043,VALID,158,VALID,0.252344,
2009-03-14, 03:30:04,VALID,1002.66,VALID,1,VALID,92.8892,VALID,0.100563,VALID,24.3441,VALID,153,VALID,0.233984,
2009-03-14, 03:31:04,VALID,1002.58,VALID,0.5,VALID,93.0723,VALID,0,VALID,24.3052,VALID,107,VALID,0.480469,
2009-03-14, 03:32:04,VALID,1002.59,VALID,0,VALID,93.1105,VALID,0.100563,VALID,24.2468,VALID,205,VALID,1.37695,
2009-03-14, 03:33:04,VALID,1002.64,VALID,0,VALID,93.3317,VALID,0.100563,VALID,24.2078,VALID,178,VALID,0.578906,
2009-03-14, 03:34:04,VALID,1002.63,VALID,0,VALID,93.4919,VALID,0.100563,VALID,24.1884,VALID,170,VALID,0.173828,
2009-03-14, 03:35:04,VALID,1002.62,VALID,0,VALID,93.6674,VALID,0,VALID,24.2078,VALID,275,VALID,0.733984,
2009-03-14, 03:36:04,VALID,1002.62,VALID,0,VALID,93.7284,VALID,0,VALID,24.2097,VALID,173,VALID,0.684375,
2009-03-14, 03:37:04,VALID,1002.61,VALID,0,VALID,93.8047,VALID,0,VALID,24.2097,VALID,173,VALID,0.168359,
2009-03-14, 03:38:05,VALID,1002.6,VALID,0,VALID,93.8734,VALID,0.100563,VALID,24.1884,VALID,173,VALID,0.128906,
2009-03-14, 03:39:05,VALID,1002.61,VALID,0,VALID,93.9649,VALID,0,VALID,24.2078,VALID,193,VALID,1.07305,
2009-03-14, 03:40:05,VALID,1002.61,VALID,0,VALID,94.0336,VALID,0.100563,VALID,24.2273,VALID,214,VALID,0.564062,
2009-03-14, 03:41:05,VALID,1002.64,VALID,0,VALID,94.0488,VALID,0,VALID,24.2486,VALID,214,VALID,0.341797,
2009-03-14, 03:42:05,VALID,1002.64,VALID,0,VALID,94.0717,VALID,0,VALID,24.2681,VALID,214,VALID,0.248437,
2009-03-14, 03:43:05,VALID,1002.64,VALID,0,VALID,94.1022,VALID,0,VALID,24.2681,VALID,199,VALID,0.462109,
2009-03-14, 03:44:05,VALID,1002.62,VALID,0,VALID,94.087,VALID,0,VALID,24.2681,VALID,152,VALID,1.8793,